Location: Unspecified
(0.0000°N, 0.0000°E)
Time: 02:51:39
(UTC+00:00)

CZ-3C DEB - Pass Details

Date: 20 February 2026
Orbit: 408 x 32633 km, 21.5° (Epoch: 28 September)

Event Time Altitude Azimuth Distance (km) Brightness Sun altitude
Exits shadow 02:19:14 56° 333° (NNW) 11,655 ? -57.0°
Maximum altitude 06:52:55 70° 335° (NNW) 31,721 ? 9.6°
Drops below altitude 10° 10:33:27 10° 119° (ESE) 5,984 ? 62.8°
Sets 10:35:50 0° 118° (ESE) 6,246 ? 63.4°
